TimeCST,TemperatureF,Dew PointF,Humidity,Sea Level PressureIn,VisibilityMPH,Wind Direction,Wind SpeedMPH,Gust SpeedMPH,PrecipitationIn,Events,Conditions,WindDirDegrees,DateUTC
12:53 AM,52.0,51.1,97,29.95,2.0,North,4.6,-,N/A,,Overcast,10,2013-02-08 06:53:00
1:04 AM,51.8,51.8,100,29.95,1.5,NNE,4.6,-,N/A,,Overcast,30,2013-02-08 07:04:00
1:20 AM,51.8,50.0,94,29.95,1.2,NE,4.6,-,N/A,,Overcast,40,2013-02-08 07:20:00
1:26 AM,51.8,50.0,94,29.96,1.8,NNE,4.6,-,N/A,,Overcast,30,2013-02-08 07:26:00
1:33 AM,51.8,50.0,94,29.95,3.0,ENE,3.5,-,N/A,,Overcast,60,2013-02-08 07:33:00
1:53 AM,52.0,50.0,93,29.95,3.0,NNE,3.5,-,N/A,,Overcast,30,2013-02-08 07:53:00
2:53 AM,52.0,50.0,93,29.96,2.5,Calm,Calm,-,N/A,,Overcast,0,2013-02-08 08:53:00
3:24 AM,51.8,50.0,94,29.97,1.5,Calm,Calm,-,N/A,,Overcast,0,2013-02-08 09:24:00
3:32 AM,51.8,50.0,94,29.97,2.0,Calm,Calm,-,N/A,,Overcast,0,2013-02-08 09:32:00
3:44 AM,51.8,50.0,94,29.97,1.5,Calm,Calm,-,N/A,,Overcast,0,2013-02-08 09:44:00
3:53 AM,51.1,50.0,96,29.96,1.8,Calm,Calm,-,N/A,,Overcast,0,2013-02-08 09:53:00
4:00 AM,51.8,50.0,94,29.97,2.0,Calm,Calm,-,N/A,,Overcast,0,2013-02-08 10:00:00
4:15 AM,51.8,50.0,94,29.98,1.8,Calm,Calm,-,N/A,,Overcast,0,2013-02-08 10:15:00
4:37 AM,51.8,50.0,94,29.99,2.5,Calm,Calm,-,N/A,,Overcast,0,2013-02-08 10:37:00
4:53 AM,52.0,50.0,93,29.99,2.0,Calm,Calm,-,N/A,,Overcast,0,2013-02-08 10:53:00
5:00 AM,51.8,50.0,94,30.00,1.8,NNW,3.5,-,N/A,,Overcast,340,2013-02-08 11:00:00
5:19 AM,51.8,50.0,94,30.01,2.0,Calm,Calm,-,N/A,,Overcast,0,2013-02-08 11:19:00
5:41 AM,51.8,50.0,94,30.01,3.0,Calm,Calm,-,N/A,,Overcast,0,2013-02-08 11:41:00
5:53 AM,52.0,50.0,93,30.01,3.0,Calm,Calm,-,N/A,,Overcast,0,2013-02-08 11:53:00
6:53 AM,52.0,51.1,97,30.02,3.0,Calm,Calm,-,N/A,,Overcast,0,2013-02-08 12:53:00
7:53 AM,53.1,51.1,93,30.02,5.0,Calm,Calm,-,N/A,,Overcast,0,2013-02-08 13:53:00
8:51 AM,53.6,50.0,88,30.05,10.0,WNW,4.6,-,N/A,,Overcast,290,2013-02-08 14:51:00
8:53 AM,54.0,50.0,86,30.05,10.0,West,4.6,-,N/A,,Overcast,280,2013-02-08 14:53:00
9:46 AM,55.4,51.8,88,30.06,10.0,West,6.9,-,N/A,,Overcast,260,2013-02-08 15:46:00
9:53 AM,55.9,51.1,84,30.06,9.0,SW,8.1,-,N/A,,Overcast,230,2013-02-08 15:53:00
10:53 AM,61.0,53.1,75,30.06,10.0,WSW,3.5,-,N/A,,Overcast,240,2013-02-08 16:53:00
11:18 AM,59.0,51.8,77,30.06,10.0,SW,4.6,-,N/A,,Overcast,220,2013-02-08 17:18:00
11:53 AM,62.1,53.1,72,30.05,10.0,SW,4.6,-,N/A,,Overcast,230,2013-02-08 17:53:00
12:53 PM,63.0,54.0,72,30.04,9.0,NW,8.1,-,N/A,,Overcast,320,2013-02-08 18:53:00
1:26 PM,64.4,53.6,68,30.04,9.0,NW,9.2,-,N/A,,Overcast,320,2013-02-08 19:26:00
1:53 PM,64.9,54.0,68,30.04,10.0,NW,9.2,-,N/A,,Mostly Cloudy,310,2013-02-08 19:53:00
2:30 PM,64.4,53.6,68,30.04,9.0,NW,13.8,-,N/A,,Mostly Cloudy,320,2013-02-08 20:30:00
2:45 PM,64.4,53.6,68,30.04,8.0,NW,15.0,-,N/A,,Scattered Clouds,320,2013-02-08 20:45:00
2:53 PM,64.9,53.1,65,30.03,8.0,NW,12.7,-,N/A,,Scattered Clouds,320,2013-02-08 20:53:00
3:15 PM,64.4,53.6,68,30.04,8.0,NNW,17.3,20.7,N/A,,Mostly Cloudy,340,2013-02-08 21:15:00
3:32 PM,62.6,53.6,72,30.05,7.0,NNW,10.4,-,N/A,,Mostly Cloudy,340,2013-02-08 21:32:00
3:43 PM,62.6,53.6,72,30.05,7.0,NW,9.2,16.1,N/A,,Mostly Cloudy,320,2013-02-08 21:43:00
3:53 PM,62.1,53.1,72,30.06,7.0,NNW,11.5,19.6,N/A,,Mostly Cloudy,340,2013-02-08 21:53:00
4:38 PM,60.8,53.6,77,30.08,7.0,North,8.1,-,N/A,,Mostly Cloudy,350,2013-02-08 22:38:00
4:53 PM,59.0,53.1,81,30.08,7.0,North,12.7,-,N/A,,Overcast,350,2013-02-08 22:53:00
5:17 PM,57.2,51.8,82,30.09,6.0,North,13.8,-,N/A,,Haze,360,2013-02-08 23:17:00
5:53 PM,55.9,51.1,84,30.10,10.0,North,9.2,-,N/A,,Overcast,350,2013-02-08 23:53:00
6:17 PM,55.4,51.8,88,30.11,10.0,North,8.1,-,N/A,,Overcast,350,2013-02-09 00:17:00
6:25 PM,55.4,50.0,82,30.11,10.0,North,10.4,-,N/A,,Overcast,350,2013-02-09 00:25:00
6:53 PM,55.9,50.0,80,30.12,10.0,North,10.4,-,N/A,,Overcast,350,2013-02-09 00:53:00
7:09 PM,55.4,48.2,77,30.13,10.0,NNW,12.7,19.6,N/A,,Overcast,340,2013-02-09 01:09:00
7:53 PM,54.0,48.9,83,30.14,10.0,NNW,8.1,-,N/A,,Mostly Cloudy,340,2013-02-09 01:53:00
8:53 PM,53.1,46.0,77,30.16,10.0,North,10.4,-,N/A,,Mostly Cloudy,350,2013-02-09 02:53:00
9:07 PM,51.8,44.6,76,30.17,10.0,North,11.5,-,N/A,,Scattered Clouds,350,2013-02-09 03:07:00
9:53 PM,48.9,43.0,80,30.17,10.0,North,8.1,-,N/A,,Clear,350,2013-02-09 03:53:00
10:53 PM,46.9,41.0,80,30.20,10.0,North,8.1,-,N/A,,Clear,350,2013-02-09 04:53:00
11:53 PM,44.1,39.9,85,30.20,7.0,North,8.1,-,N/A,,Clear,350,2013-02-09 05:53:00